SCP
0 0 0 0 0 0 0 0 0 0 0 0 0 0 0 0 0 0 0 0 0 0 0 0 0 0 0 0 0 0 0 0 0 0 0 0 0 0 0 0 0 0 0 0
0 0 0 0 0 0 0 0 0 0 0 0 0 0 0 0 0 0 0 0 0 0 0 0 0 0 0 0 0 0 0 0 0 0 0 0 0 0 0 0 0 0 0 0
0 0 0 0 0 0 0 0 0 0 0 0 0 0 0 0 0 0 0 0 0 0 0 0 0 0 0 0 0 0 0 0 0 0 0 0 0 0 0 0 0 0 0 0
0 0 0 0 0 0 0 0 0 0 0 0 0 0 0 0 0 0 0 0 0 0 0 0 0 0 0 0 0 0 0 0 0 0 0 0 0 0 0 0 0 0 0 0
0 0 0 0 0 0 0 0 0 0 0 0 0 0 0 0 0 0 0 0 0 0 0 0 0 0 0 0 0 0 0 0 0 0 0 0 0 0 0 1 1 0 0 0
0 0 0 0 0 0 0 0 0 0 0 0 0 0 0 0 0 0 0 0 0 0 0 0 0 0 0 0 0 0 0 0 0 0 0 0 0 0 0 1 1 0 0 0
0 0 0 0 0 0 0 0 0 0 0 0 0 0 0 0 0 0 0 0 0 0 0 0 0 0 0 0 0 0 0 0 0 0 0 0 0 1 1 1 1 0 0 0
0 0 0 0 0 0 0 0 0 0 0 0 0 0 0 0 0 0 0 0 0 0 0 0 0 0 0 0 0 0 0 0 0 0 0 0 0 1 1 1 0 0 0 0
0 0 0 0 0 0 0 0 0 0 0 0 0 0 0 0 0 0 0 0 0 0 0 0 0 0 0 0 0 0 0 0 0 0 0 0 0 0 1 1 0 0 0 0
0 0 0 0 0 0 0 0 0 0 0 0 0 0 0 0 0 0 -0 0 0 0 0 0 0 0 0 0 0 0 0 0 0 0 0 0 0 0 0 0 0 0 0 0
0 0 0 0 0 0 0 0 0 0 0 0 0 0 0 0 0 0 0 0 0 0 0 0 0 0 0 0 0 0 0 0 0 0 0 0 0 0 0 0 0 0 0 0
0 0 0 0 0 0 0 0 0 0 0 0 0 0 0 0 0 0 0 0 0 0 0 0 0 0 0 0 0 0 0 0 0 0 0 0 0 0 0 0 0 0 0 0
0 0 0 0 0 0 0 0 0 0 0 0 0 0 0 0 0 0 0 0 0 0 0 0 0 0 0 0 0 0 0 0 0 0 0 0 0 0 0 0 0 0 0 0
0 0 0 0 0 0 0 0 0 0 0 0 0 0 0 0 0 0 0 0 0 0 0 0 0 0 0 0 0 0 0 0 0 0 0 0 0 0 0 0 0 0 0 0
0 0 0 0 0 0 0 0 0 0 0 0 0 0 0 0 0 0 0 0 0 0 0 0 0 0 0 0 0 0 0 0 0 0 0 0 0 0 0 0 0 0 0 0
0 0 0 0 0 0 0 0 0 0 0 0 0 0 0 0 0 0 0 0 0 0 0 0 0 0 0 0 0 0 0 0 0 0 0 0 0 0 0 0 0 0 0 0
0 0 0 0 0 0 0 0 0 0 0 0 0 0 0 0 0 0 0 0 0 0 0 0 0 0 0 0 0 0 0 0 0 0 0 0 0 0 0 0 0 0 0 0
0 0 0 0 0 0 0 0 0 0 0 0 0 0 0 0 0 0 0 0 0 0 0 0 0 0 0 0 0 0 0 0 0 0 0 0 0 0 0 0 0 0 0 0
0 0 0 0 0 0 0 0 0 0 0 0 0 0 0 0 0 0 0 0 0 0 0 0 0 0 0 0 0 0 0 0 0 0 0 0 0 0 0 0 0 0 0 0
0 0 0 0 0 0 0 0 0 0 0 0 0 0 0 0 0 0 0 0 0 0 0 0 0 0 0 0 0 0 0 0 0 0 0 0 0 0 0 0 0 0 0 0
0 0 0 0 0 0 0 0 0 0 0 0 0 0 0 0 0 0 0 0 0 0 0 0 0 0 0 0 0 0 0 0 0 0 0 0 0 0 0 0 0 0 0 0
0 0 0 0 0 0 0 0 0 0 0 0 0 0 0 0 0 0 0 0 0 0 0 0 0 0 0 0 0 0 0 0 0 0 0 0 0 0 0 0 0 0 0 0
0 0 0 0 0 0 0 0 0 0 0 0 0 0 0 0 0 0 0 0 0 0 0 0 0 0 0 0 0 0 0 0 0 0 0 0 0 0 0 0 0 0 0 0
0 0 0 0 0 0 0 0 0 0 0 0 0 0 0 0 0 0 0 0 0 0 0 0 0 0 0 0 0 0 0 0 0 0 0 0 0 0 0 0 0 0 0 0
0 0 0 0 0 0 0 0 0 0 0 0 0 0 0 0 0 0 0 0 0 0 0 0 0 0 0 0 0 0 0 0 0 0 0 0 0 0 0 0 0 0 0 0
0 0 0 0 0 0 0 0 0 0 0 0 0 0 0 0 0 0 0 0 0 0 0 0 0 0 0 0 0 0 0 0 0 0 0 0 0 0 0 0 0 0 0 0
Wind_Speed
10 10 16 20 18 8 10 12 13 10 5 9 15 18 17 12 11 13 13 13 14 16 15 13 14 15 15 15 16 17 16 16 13 10 10 9 9 9 9 9 11 11 11 11
10 20 20 15 13 9 10 12 12 6 3 6 10 17 17 15 14 15 16 16 15 15 13 13 14 15 17 17 18 18 18 17 16 13 11 9 9 9 10 9 10 12 12 12
21 12 15 15 14 15 14 14 12 6 2 3 6 14 18 16 15 14 15 16 16 16 16 15 15 16 17 18 19 16 18 18 18 16 11 8 8 7 8 10 10 12 12 12
17 9 17 19 19 18 16 12 8 6 6 6 7 12 14 14 15 16 17 17 19 18 17 16 15 16 18 18 16 17 18 18 17 17 14 15 12 12 13 10 9 11 12 13
15 15 20 22 21 18 8 6 6 5 6 8 8 11 11 7 14 18 19 20 20 19 18 17 16 16 15 15 14 15 16 17 17 17 17 17 15 13 10 10 11 11 10 12
8 8 14 14 12 13 9 7 5 1 4 12 16 14 14 10 14 13 15 17 18 17 16 15 14 11 12 11 12 13 15 16 16 17 18 18 18 16 13 12 11 10 8 8
9 8 6 8 13 11 13 11 7 7 9 12 6 12 15 9 12 13 13 13 12 12 12 13 12 12 11 11 12 12 14 15 15 16 17 18 18 17 16 13 12 10 8 8
19 16 17 13 15 17 20 19 13 11 10 7 6 14 11 7 8 9 10 10 8 9 9 10 10 10 10 10 11 12 13 14 14 15 16 15 16 12 11 13 11 10 8 8
21 16 13 12 8 16 17 17 9 3 2 4 9 10 11 8 10 11 12 12 12 10 8 9 8 8 8 8 9 10 11 11 12 12 13 13 13 13 12 11 10 8 8 7
12 12 12 10 7 6 12 14 7 8 8 9 10 11 9 6 12 12 11 12 10 7 6 6 6 6 5 5 6 7 8 9 9 10 9 8 10 11 10 9 9 9 8 8
8 11 11 12 17 19 13 15 11 10 8 9 9 10 7 11 10 10 10 8 7 6 6 5 5 5 4 5 5 6 7 7 7 8 8 8 8 8 8 7 8 8 8 8
8 8 10 12 6 12 13 17 17 14 11 9 7 10 3 7 7 7 6 5 4 4 4 4 4 4 4 5 5 5 5 6 6 6 6 6 6 6 7 7 6 6 7 7
11 10 11 7 5 8 13 15 19 12 7 8 10 12 2 5 6 7 7 6 4 4 4 4 5 5 5 5 5 5 5 5 5 5 6 6 6 6 6 6 5 6 6 6
9 8 12 20 16 17 18 19 20 15 10 13 19 18 8 8 8 7 7 6 5 5 5 6 6 6 5 5 5 5 5 5 5 5 5 5 5 5 5 5 5 5 6 7
8 7 8 9 9 18 18 21 23 22 21 19 23 23 19 13 10 7 6 5 6 6 6 7 7 6 6 6 6 6 5 5 6 6 5 5 5 5 5 5 5 5 5 6
10 8 6 4 9 15 13 21 24 26 26 25 21 23 18 12 8 8 8 8 8 8 8 8 7 7 8 8 7 7 7 6 6 6 6 6 6 6 6 6 6 6 6 6
12 9 9 7 6 6 13 25 28 25 26 26 29 25 11 10 13 13 11 11 11 10 8 8 9 9 8 8 8 8 7 7 7 7 6 6 6 6 6 6 6 6 6 6
13 9 6 7 8 14 16 14 21 26 26 26 23 16 16 15 12 9 10 12 11 9 9 8 7 7 6 6 7 6 7 8 7 7 7 6 7 6 6 7 6 6 6 6
13 12 7 8 12 13 10 11 21 23 26 25 25 19 12 5 2 8 8 8 9 8 7 6 5 5 5 6 7 8 8 8 7 8 8 7 7 7 7 7 7 6 6 6
10 10 8 9 13 18 15 11 11 11 20 17 20 21 13 10 10 13 7 8 7 5 3 3 3 4 5 6 7 9 8 9 9 8 7 7 7 7 8 7 6 5 5 6
13 10 13 12 12 13 6 9 16 17 16 8 14 16 15 16 14 5 7 6 5 3 2 3 4 4 4 5 7 8 8 8 6 6 6 7 6 6 7 6 5 6 6 7
17 14 15 12 13 14 7 13 17 10 3 5 9 11 12 11 8 5 6 5 4 4 4 4 5 4 4 5 7 7 6 5 6 7 7 7 6 6 6 7 7 6 7 7
13 13 10 12 11 2 10 9 5 4 5 5 6 7 10 9 8 7 6 6 4 4 4 4 5 6 4 3 4 6 5 6 7 7 6 6 6 5 6 7 8 7 6 6
5 2 6 5 5 4 5 2 1 2 3 3 4 6 8 8 8 7 7 6 5 4 4 4 6 6 4 3 3 4 5 6 7 7 6 6 6 6 5 5 5 6 6 6
5 7 6 5 2 3 3 4 3 3 3 5 5 4 6 9 8 7 7 6 5 5 4 4 5 6 5 4 5 4 5 6 6 6 6 5 5 6 5 4 3 4 3 4
3 5 8 8 7 7 6 5 5 5 5 5 7 6 5 6 8 8 7 5 5 5 5 5 6 5 5 5 5 4 3 4 6 6 5 4 4 4 4 4 3 3 3 4
Wind_Direction
169 185 200 198 203 217 200 207 215 215 189 209 230 241 242 233 228 235 233 228 226 229 230 217 211 208 209 209 209 208 207 205 200 197 199 204 210 211 213 215 214 211 209 205
169 212 206 193 196 197 199 211 219 216 194 224 243 251 250 242 237 235 235 232 230 231 226 215 211 207 209 210 210 211 211 207 203 203 200 205 206 212 213 212 214 213 211 208
198 205 184 180 189 201 211 215 212 206 164 226 265 258 244 239 234 237 238 240 238 233 231 221 212 210 210 212 211 210 211 210 207 206 204 202 207 211 208 211 212 212 212 211
208 186 176 185 197 199 216 216 209 199 211 228 225 260 243 232 232 232 232 231 234 232 231 228 218 214 212 214 212 212 212 211 208 205 206 204 206 212 214 211 209 210 211 212
199 184 183 194 199 195 201 166 179 210 233 254 229 253 256 215 235 233 230 229 230 230 229 227 221 218 216 213 211 211 211 211 208 206 208 210 216 221 220 211 209 210 209 212
183 182 193 197 183 177 138 111 85 100 231 247 234 236 259 219 226 229 227 226 228 228 228 230 227 219 218 212 209 210 211 212 208 207 209 212 216 217 215 212 209 208 207 208
178 186 187 157 147 162 172 163 170 192 214 237 204 228 252 230 224 229 231 229 228 229 228 226 221 215 214 209 207 206 208 211 209 208 210 213 216 217 217 215 213 208 206 206
185 193 191 181 180 178 191 191 192 195 208 216 190 234 249 242 247 250 254 256 253 244 232 227 224 218 213 209 206 205 207 211 208 209 212 214 215 216 217 216 213 210 209 209
193 196 174 184 178 170 181 205 214 181 130 225 223 248 275 254 251 244 242 242 242 239 231 227 221 215 212 207 205 204 205 208 208 208 210 211 211 212 213 212 212 212 211 205
184 179 171 167 146 190 191 176 166 191 191 227 240 239 240 216 221 224 226 230 234 230 224 219 215 210 207 206 202 200 203 205 206 206 206 207 208 209 210 208 208 206 204 199
168 155 159 171 188 181 168 182 191 195 215 215 237 244 222 218 211 217 222 225 227 223 216 208 202 199 196 193 190 190 193 196 200 202 202 201 203 202 202 204 206 202 198 194
162 144 164 189 201 197 189 191 190 193 202 218 236 257 205 224 235 235 237 232 228 221 209 198 193 189 191 193 190 189 187 188 192 190 190 193 193 191 191 193 192 187 186 183
158 144 138 162 192 195 205 200 203 207 185 193 215 244 214 216 230 230 233 232 220 207 199 193 194 196 197 195 191 189 187 182 176 174 175 178 182 184 185 181 174 169 166 162
156 166 185 196 196 183 196 199 199 196 204 215 227 238 234 222 224 219 216 214 209 206 203 203 204 203 201 198 194 189 186 178 171 170 172 172 174 173 168 159 154 153 152 151
169 185 200 210 184 177 193 198 197 206 213 220 230 232 232 225 219 217 210 202 204 211 213 212 209 204 202 200 196 191 186 177 172 170 169 168 159 152 143 140 137 132 131 134
183 179 170 193 193 187 195 202 203 212 219 228 237 239 236 234 225 222 216 210 217 221 220 217 211 207 206 202 196 189 186 177 173 172 167 156 153 147 143 136 131 128 125 123
180 163 168 186 169 167 217 207 206 214 221 223 232 237 222 219 220 224 224 223 226 227 221 215 213 210 207 201 192 188 180 169 171 170 163 159 155 149 145 138 136 135 132 127
176 166 161 149 152 211 228 209 208 217 223 223 231 232 215 219 217 220 220 220 224 225 225 222 216 211 200 186 179 171 164 167 169 169 167 162 158 151 145 144 142 136 132 134
184 167 156 173 200 235 244 200 201 209 229 224 229 232 219 194 193 242 224 219 225 223 223 222 211 198 173 170 165 157 161 166 170 175 173 168 162 156 154 153 148 141 138 134
182 174 165 180 204 224 232 188 180 191 240 222 219 225 209 168 218 236 189 198 215 216 206 191 163 153 160 159 153 157 166 173 183 181 170 162 160 159 158 153 143 134 131 129
177 183 193 196 216 239 221 153 152 190 231 200 206 215 202 204 224 212 151 176 184 182 164 146 142 144 150 148 154 162 169 184 174 150 145 149 153 152 146 137 134 135 134 132
180 187 197 197 217 229 161 158 182 207 155 164 189 198 194 202 202 169 149 153 149 139 120 121 125 117 115 141 154 161 170 155 136 140 144 146 146 144 140 138 139 143 146 145
193 191 186 199 217 145 162 184 196 164 175 177 177 180 177 178 183 170 161 152 139 127 117 114 122 113 101 113 145 155 146 137 139 139 141 139 137 136 143 151 153 154 160 161
210 150 159 197 220 183 180 178 166 175 178 160 154 154 159 164 160 154 148 141 133 120 118 117 119 118 107 93 103 118 126 135 139 141 141 141 144 144 146 154 162 167 172 172
178 173 177 202 176 146 199 201 186 150 110 104 97 111 142 142 140 142 140 138 132 121 110 111 117 115 107 97 91 97 121 136 138 138 140 144 148 149 151 154 166 176 181 185
175 184 192 205 181 179 192 194 167 148 143 137 124 107 97 122 133 130 126 123 122 119 113 110 108 108 105 99 92 86 110 137 141 142 148 150 150 148 151 149 140 146 159 166